JCSAT 13

导读

JCSAT 13是日本(JP)于2012年5月15日发射的通信卫星,隶属于日本卫星系统公司(JSAT)。该卫星定位地球静止轨道,主要服务于亚太区域,提供高清电视转播、宽带通信、应急通信等业务,接替退役卫星增强覆盖能力,搭载先进转发器,以高可靠性保障日韩及周边地区的稳定通信服务,是日本商业通信卫星布局中的重要节点。

Basic Information
目录编号:
38331
目录名称:
JCSAT 13
国际标识:
2012-023A
轨道中心:
EARTH
卫星名称:
JCSAT 13
卫星全名:
--
卫星状态:
在轨 (已飞行5146 天)
发射日期:
2012-05-15 UTC
国别 :
日本 (JP)
星等 :
--
Orbit Information
数据来源 国际轨道数据 AOE轨道数据
星历时间 2026-06-17T02:44:15+0800
21小时前
查看轨道信息
2026-06-17T04:00:00+0800
20小时前
查看轨道信息
半长轴 42164.924km 42164.84km
偏心率 0.000298 0.0002973
轨道倾角 0.013° 0.015°
近地点辐角 67.967° 81.437°
升交点赤经 42.788° 27.245°
平近点角 199.352° 220.413°
近地点 35774.221km 35774.167km
远地点 35799.353km 35799.239km
周期 1436.107分钟 1436.102分钟
每日圈数 1.002711 1.002714
Detailed Information
使用方式:
暂无
2D Orbit Map
3D Orbit Map
Orbit Altitude Analysis Chart
Orbit Inclination Analysis Chart
Orbit Comprehensive Analysis Chart
View Comprehensive Chart